Location: Wyoming Infrared Observatory
(41.0971°N, 105.9765°W)
Time: 20:53:28
(UTC-07:00)

Daily predictions for brighter satellites

Satellite Brightness Start Highest point End
(mag) Time Altitude Azimuth Time Altitude Azimuth Time Altitude Azimuth
Cosmos 841 Rocket 4.1 16:58:53 10° N 17:03:42 34° ENE 17:08:28 10° SE
COSMOS 2406 3.6 17:03:00 10° NNW 17:08:45 75° WSW 17:14:25 10° SSE
Cosmos 972 Rocket 3.8 17:06:22 10° NNW 17:11:18 80° ENE 17:16:15 10° SSE
Cosmos 1437 2.6 17:08:48 10° S 17:11:57 69° E 17:15:06 10° NNE
Cosmos 1633 4.1 17:09:35 10° NNE 17:12:02 17° ENE 17:14:28 10° ESE
Cosmos 1486 Rocket 4.4 17:08:58 10° S 17:13:52 43° ESE 17:18:49 10° NNE
Aureole 3 4.3 17:11:39 10° NNW 17:16:25 77° W 17:22:29 10° S
IDEFIX/ARIANE 42P 4.2 17:13:26 10° SSW 17:18:20 40° W 17:23:15 10° NNW
CSL-04 Debris 4.1 17:13:19 10° SSE 17:18:42 70° ENE 17:24:05 10° N
Meteor 1-14 Rocket 4.3 17:16:15 10° N 17:21:50 56° ENE 17:27:16 10° SSE
Cosmos 1908 Rocket 3.9 17:20:22 10° N 17:24:30 42° ENE 17:28:36 10° SSE
Cosmos 1733 Rocket 3.3 17:21:19 10° N 17:25:46 76° W 17:30:11 10° S
Cosmos 1833 Rocket 3.4 17:22:07 10° N 17:27:05 31° ENE 17:32:01 10° ESE
Cosmos 972 4.4 17:25:20 10° N 17:30:18 60° ENE 17:35:06 10° SSE
Cosmos 2297 4.5 17:26:03 10° SSE 17:31:01 32° ESE 17:36:00 10° NE
ERBS 3.1 17:29:44 10° NW 17:33:04 54° SW 17:36:24 10° SSE
IRS-1A Rocket 4.4 17:27:33 10° SSE 17:33:14 59° ENE 17:38:51 10° N
ALOS 3.3 17:29:55 10° ESE 17:33:33 23° ENE 17:37:13 10° NNE
SPOT 3 Rocket 4.3 17:30:37 10° SE 17:35:07 30° ENE 17:39:38 10° N
Cosmos 2278 Rocket 2.2 17:29:44 10° SSW 17:35:24 84° ESE 17:41:07 10° NNE
Cosmos 2233 Rocket 4.0 17:30:40 10° S 17:36:56 85° E 17:43:11 10° N
Cosmos 1862 Rocket 4.1 17:32:49 10° SSW 17:37:12 62° W 17:41:38 10° N
Meteor 1-26 Rocket 4.3 17:32:52 10° S 17:38:27 83° W 17:44:01 10° N
AQUARIUS 4.2 17:35:36 10° SSE 17:40:05 84° W 17:44:36 10° NNW
CENTAUR R/B 3.6 17:34:32 10° WSW 17:40:19 42° NW 17:46:54 10° NNE
CORIOLIS 4.1 17:35:07 10° SSE 17:40:34 83° ENE 17:46:03 10° NNW
SMAP 3.2 17:36:58 10° S 17:41:37 80° WSW 17:46:17 10° NNW
Sich 1 Rocket 3.7 17:37:19 10° N 17:41:41 54° E 17:46:02 10° SSE
Meteor 1-28 Rocket 3.1 17:40:05 10° NNE 17:43:49 84° ESE 17:47:30 10° S
CZ-4 R/B 1.2 17:40:30 10° SSE 17:44:22 84° ENE 17:48:13 10° N
COSMOS 2455 3.6 17:40:02 10° SW 17:45:53 53° NW 17:51:47 10° NNE
Cosmos 1606 2.7 17:45:41 10° S 17:49:22 53° E 17:53:03 10° NNE
Okean 1-7 3.3 17:47:36 10° SSE 17:51:47 46° E 17:56:01 10° NNE
Cosmos 1484 Rocket 3.7 17:48:03 10° S 17:51:49 53° W 17:55:40 10° NNW
Landsat 4 3.6 17:51:37 10° NNE 17:55:25 82° ESE 17:59:13 10° SSW
NOAA 12 4.5 17:50:58 10° SE 17:55:55 41° ENE 18:00:51 10° N
MOS 1 4.3 17:50:27 10° SSE 17:56:02 59° ENE 18:01:38 10° N
EO 1 Del DPAF 3.4 17:54:39 11° NNE 17:58:11 51° E 18:01:54 10° S
CZ-4C R/B 3.4 17:58:43 10° NNW 18:05:09 36° NE 18:09:18 22° E
Cosmos 1782 Rocket 3.4 18:04:44 10° N 18:09:06 77° E 18:13:27 10° SSE
Meteor 2-6 Rocket 4.1 18:08:21 10° S 18:13:43 69° E 18:19:15 10° NNE
YAOGAN 1 3.0 18:10:21 10° S 18:14:38 64° W 18:18:57 10° NNW
COSMO-SKYMED 1 2.5 18:10:16 10° NNE 18:14:39 86° ESE 18:18:58 10° SSW
Cosmos 1602 3.9 18:11:06 10° N 18:14:48 44° E 18:18:29 10° SSE
Cosmos 1782 3.0 18:11:03 10° SSW 18:15:03 74° W 18:19:05 10° N
Cosmos 2082 Rocket 2.1 18:09:52 10° NNW 18:15:34 72° ENE 18:21:12 10° SSE
METEOR-M 4.2 18:11:49 10° SSE 18:17:10 82° WSW 18:22:32 10° NNW
Cosmos 1891 Rocket 4.4 18:12:44 10° S 18:18:51 67° E 18:24:53 10° NNE
ERS-2 2.6 18:16:44 10° S 18:20:22 62° WSW 18:24:02 10° NNW
SL-27 R/B 3.4 18:17:16 10° NNW 18:20:28 46° WSW 18:23:41 10° S
Cosmos 405 Rocket 2.5 18:18:41 10° S 18:22:26 62° E 18:23:02 53° NE
Cosmos 2221 Rocket 3.8 18:27:48 10° SSW 18:32:11 68° W 18:36:35 10° N
Cosmos 44 Rocket 3.2 18:27:56 10° NNW 18:32:46 62° NE 18:33:54 48° ESE
FengYun 1-2 T 4.4 18:30:01 23° SE 18:33:10 47° ENE 18:38:29 10° N
Cosmos 1503 Rocket 4.3 18:29:14 10° SSW 18:34:29 68° WNW 18:38:43 16° NNE
Nadezhda 4 Rocket 3.9 18:30:02 10° N 18:36:04 57° E 18:42:03 10° SSE
Cosmos 540 Rocket 3.7 18:31:10 10° NNW 18:36:20 70° WSW 18:41:26 10° S
BREEZE-M R/B 3.3 18:33:57 10° WNW 18:36:53 53° SSW 18:38:43 30° SSE
Lacrosse 5 4.0 18:35:44 10° NNW 18:38:03 13° N 18:38:55 12° N
Cosmos 968 Rocket 3.5 18:33:19 10° S 18:38:18 52° ESE 18:38:30 52° E
Cosmos 2034 Rocket 3.9 18:33:47 10° S 18:40:10 84° E 18:46:33 10° N
Cosmos 292 Rocket 3.6 18:37:50 10° NNW 18:42:37 86° ENE 18:45:13 27° SSE
Timation 2 Rocket 4.2 18:36:56 10° NNW 18:43:35 53° ENE 18:45:04 45° E
Meteor 1-27 Rocket 3.7 18:37:44 10° S 18:43:38 79° E 18:49:09 12° NNE
USA 234 3.2 18:42:57 36° NE 18:45:58 90° WNW 18:52:31 10° SW
Okean 2 Rocket 3.7 18:46:53 10° NNW 18:51:20 57° W 18:55:45 10° S
Cosmos 1092 Rocket 4.1 18:47:08 10° N 18:52:09 49° NE 18:52:09 49° NE
Meteor 2-20 4.4 18:47:28 10° N 18:53:34 84° W 18:59:38 10° S
FENGYUN 3A 4.2 18:52:12 10° S 18:57:32 59° W 19:02:53 10° NNW
Cosmos 44 3.4 18:56:01 10° NW 19:00:43 69° WSW 19:01:27 58° S
ALOS 3.7 19:06:29 10° SSW 19:10:46 36° W 19:15:06 10° NNW
Cosmos 1833 Rocket 4.0 19:05:53 10° NW 19:11:03 39° WSW 19:16:12 10° S
Cosmos 2369 Rocket 4.4 19:06:40 10° S 19:07:10 12° S 19:07:10 12° S
USA 229 DEB 4.0 19:30:04 10° SSW 19:35:11 55° SSW 19:35:11 55° SSW
USA 229 4.0 19:30:11 10° SSW 19:35:14 54° SSW 19:35:14 54° SSW
CZ-4C R/B 3.2 19:46:58 10° NW 19:54:10 62° WSW 19:54:34 61° SW
